Weather History for YBBN - August, 2013

Change the Weather History Date:

Wednesday, August 14, 2013

  Actual Average Record
Temperature  
Mean Temperature 64 °F -  
Max Temperature 74 °F 73 °F 80 °F (2003)
Min Temperature 54 °F 52 °F 37 °F (2008)
Degree Days  
Heating Degree Days 1    
Growing Degree Days 14 (Base 50)    
Moisture  
Dew Point 60 °F    
Average Humidity 82    
Maximum Humidity 100    
Minimum Humidity 63    
Precipitation  
Precipitation 0.00 in 0.05 in - ()
Sea Level Pressure  
Sea Level Pressure 29.97 in    
Wind  
Wind Speed 7 mph ()    
Max Wind Speed 20 mph    
Max Gust Speed -    
Visibility 6.6 miles    
Events      
Averages and records for this station are not official NWS values.
T = Trace of Precipitation, MM = Missing Value Source: Averaged Metar Reports

Daily Weather History Graph

Daily Weather History Graph

Search for Another Location

Airport or City:

Trip Planner

Search our weather history database for the weather conditions in past years. The results will help you decide how hot, cold, wet, or windy it might be!

Date:

Astronomy

Aug. 14, 2013 Rise Set
Actual Time 6:18 AM AEST 5:25 PM AEST
Civil Twilight 5:54 AM AEST 5:49 PM AEST
Nautical Twilight 5:27 AM AEST 6:17 PM AEST
Astronomical Twilight 5:00 AM AEST 6:44 PM AEST
Moon 10:38 AM AEST (8/14) No Moon Set
Length of Visible Light 11h 54m
Length of Day
11h 06m
Waxing Crescent, 46% of the Moon is Illuminated
Aug 14
Waxing Crescent
Aug 14
First Quarter
Aug 21
Full
Aug 28
Last Quarter
Sep 5
New

Hourly Weather History & Observations

Time (AEST) Temp. Dew Point Humidity Pressure Visibility Wind Dir Wind Speed Gust Speed Precip Events Conditions
12:00 AM 60.8 °F 57.2 °F 88% 30.04 in 6.2 mi Calm Calm - N/A   Mostly Cloudy
12:30 AM 59.0 °F 57.2 °F 94% 30.04 in 6.2 mi Calm Calm - N/A   Mostly Cloudy
1:00 AM 59 °F 57 °F 91% 30.04 in - SSW 4.6 mph - -  
1:00 AM 59.0 °F 57.2 °F 94% 30.04 in 6.2 mi SSW 4.6 mph - N/A   Partly Cloudy
1:30 AM 59.0 °F 57.2 °F 94% 30.04 in 6.2 mi SE 5.8 mph - N/A   Partly Cloudy
2:00 AM 57.2 °F 55.4 °F 94% 30.04 in 6.2 mi SW 3.5 mph - N/A   Scattered Clouds
2:30 AM 57.2 °F 55.4 °F 94% 30.01 in 6.2 mi SSW 4.6 mph - N/A   Scattered Clouds
3:00 AM 57.2 °F 57.2 °F 100% 30.01 in 6.2 mi SSW 5.8 mph - N/A   Scattered Clouds
3:30 AM 59.0 °F 55.4 °F 88% 30.01 in 6.2 mi South 5.8 mph - N/A   Partly Cloudy
4:00 AM 57.2 °F 55.4 °F 94% 30.01 in 6.2 mi SSW 4.6 mph - N/A   Partly Cloudy
4:30 AM 57.2 °F 55.4 °F 94% 30.01 in 6.2 mi SSW 5.8 mph - N/A   Partly Cloudy
5:00 AM 57.2 °F 55.4 °F 94% 30.01 in 6.2 mi SSW 8.1 mph - N/A   Partly Cloudy
5:30 AM 55.4 °F 53.6 °F 94% 30.04 in 6.2 mi SSW 8.1 mph - N/A   Partly Cloudy
6:00 AM 55.4 °F 53.6 °F 94% 30.04 in 6.2 mi SSW 5.8 mph - N/A   Partly Cloudy
6:30 AM 53.6 °F 53.6 °F 100% 30.04 in 6.2 mi SSW 8.1 mph - N/A   Partly Cloudy
7:00 AM 56 °F 53 °F 88% 30.05 in - SSW 8.1 mph - -  
7:00 AM 57.2 °F 53.6 °F 88% 30.04 in 6.2 mi SSW 8.1 mph - N/A   Scattered Clouds
7:30 AM 59.0 °F 55.4 °F 88% 30.04 in 6.2 mi SSW 9.2 mph - N/A   Scattered Clouds
8:00 AM 60.8 °F 55.4 °F 82% 30.04 in 6.2 mi SSW 8.1 mph - N/A   Partly Cloudy
8:30 AM 64.4 °F 57.2 °F 77% 30.04 in 6.2 mi South 6.9 mph - N/A   Partly Cloudy
9:00 AM 68.0 °F 59.0 °F 73% 30.04 in 6.2 mi South 5.8 mph - N/A   Partly Cloudy
9:30 AM 69.8 °F 60.8 °F 73% 30.06 in 6.2 mi SSE 3.5 mph - N/A   Mostly Cloudy
10:00 AM 69.8 °F 60.8 °F 73% 30.04 in 6.2 mi NNW 1.2 mph - N/A   Mostly Cloudy
10:30 AM 71.6 °F 60.8 °F 69% 30.04 in 6.2 mi NNE 8.1 mph - N/A   Mostly Cloudy
11:00 AM 71.6 °F 62.6 °F 73% 30.01 in 6.2 mi North 8.1 mph - N/A   Mostly Cloudy
11:30 AM 73.4 °F 62.6 °F 69% 30.01 in 6.2 mi NNE 8.1 mph - N/A   Scattered Clouds
12:00 PM 74 °F 64 °F 63% 29.99 in 11 mi NNE 9.2 mph - -   Haze
12:00 PM 73.4 °F 64.4 °F 73% 29.98 in 6.2 mi NNE 9.2 mph - N/A   Scattered Clouds
12:30 PM 73.4 °F 60.8 °F 65% 29.98 in 6.2 mi NNE 9.2 mph - N/A   Scattered Clouds
1:00 PM 72 °F 62 °F 63% 29.96 in - NNE 10.4 mph - -  
1:00 PM 71.6 °F 62.6 °F 73% 29.95 in 6.2 mi NNE 10.4 mph - N/A   Mostly Cloudy
1:30 PM 73.4 °F 64.4 °F 73% 29.92 in 6.2 mi NNE 11.5 mph - N/A   Scattered Clouds
2:00 PM 71.6 °F 62.6 °F 73% 29.92 in 6.2 mi NNE 12.7 mph - N/A   Scattered Clouds
2:30 PM 71.6 °F 62.6 °F 73% 29.92 in 6.2 mi NNE 12.7 mph - N/A   Scattered Clouds
3:00 PM 70 °F 63 °F 72% 29.92 in 11 mi NNE 13.8 mph - -   Haze
3:00 PM 69.8 °F 62.6 °F 78% 29.92 in 6.2 mi NNE 13.8 mph - N/A   Mostly Cloudy
3:30 PM 71.6 °F 64.4 °F 78% 29.89 in 6.2 mi NNE 16.1 mph - N/A   Scattered Clouds
4:00 PM 71 °F 65 °F 76% 29.91 in - NNE 15.0 mph - -  
4:00 PM 69.8 °F 64.4 °F 83% 29.89 in 6.2 mi NNE 15.0 mph - N/A   Scattered Clouds
4:30 PM 69.8 °F 64.4 °F 83% 29.89 in 6.2 mi NNE 15.0 mph - N/A   Mostly Cloudy
5:00 PM 68.0 °F 64.4 °F 88% 29.89 in 6.2 mi NNE 15.0 mph - N/A   Mostly Cloudy
5:30 PM 68.0 °F 64.4 °F 88% 29.89 in 6.2 mi NNE 15.0 mph - N/A   Partly Cloudy
5:52 PM 69.8 °F 64.4 °F 83% 29.89 in 6.2 mi NNE 16.1 mph - N/A   Partly Cloudy
6:00 PM 69 °F 65 °F 82% 29.90 in 11 mi NNE 16.1 mph - -   Scattered Clouds
6:00 PM 69.8 °F 64.4 °F 83% 29.89 in 6.2 mi NNE 16.1 mph - N/A   Partly Cloudy
6:30 PM 68.0 °F 64.4 °F 88% 29.89 in 6.2 mi NNE 16.1 mph - N/A   Mostly Cloudy
7:00 PM 69 °F 63 °F 77% 29.90 in - NNE 17.3 mph - -  
7:00 PM 68.0 °F 62.6 °F 83% 29.89 in 6.2 mi NNE 17.3 mph - N/A   Mostly Cloudy
7:30 PM 68.0 °F 62.6 °F 83% 29.89 in 6.2 mi North 17.3 mph - N/A   Mostly Cloudy
8:00 PM 68.0 °F 62.6 °F 83% 29.89 in - North 19.6 mph - N/A   Clear
8:30 PM 68.0 °F 60.8 °F 78% 29.89 in - North 15.0 mph - N/A   Clear
9:00 PM 68 °F 61 °F 72% 29.91 in 12 mi North 15.0 mph - -   Mostly Cloudy
9:00 PM 68.0 °F 60.8 °F 78% 29.89 in - North 15.0 mph - N/A   Clear
9:30 PM 68.0 °F 60.8 °F 78% 29.92 in 6.2 mi North 12.7 mph - N/A   Mostly Cloudy
10:00 PM 66 °F 61 °F 79% 29.92 in - North 9.2 mph - -  
10:00 PM 66.2 °F 60.8 °F 83% 29.92 in 6.2 mi North 9.2 mph - N/A   Mostly Cloudy
10:30 PM 66.2 °F 60.8 °F 83% 29.92 in 6.2 mi North 9.2 mph - N/A   Mostly Cloudy
11:00 PM 66.2 °F 60.8 °F 83% 29.92 in 6.2 mi NW 5.8 mph - N/A   Mostly Cloudy
11:30 PM 62.6 °F 60.8 °F 94% 29.89 in - WNW 4.6 mph - N/A   Clear